This is the latest recevied weather packets stored in our database for station/object N7BTW-13. If no packets are shown the sender has not sent any weather packets the latest 10 day(s).
| Time | Temp. | Humidity | Pressure | Rain* | Wind** | Luminosity | Snow |
|---|---|---|---|---|---|---|---|
| 1787968809 | 22.78° C | 52% | - | 0 mm | - | - | - |
| 1787968209 | 23.33° C | 51% | - | 0 mm | - | - | - |
| 1787967606 | 23.33° C | 49% | - | 0 mm | - | - | - |
| 1787967007 | 26.67° C | 43% | - | 0 mm | - | - | - |
| 1787966407 | 26.67° C | 43% | - | 0 mm | - | - | - |
| 1787965811 | 26.67° C | 43% | - | 0 mm | - | - | - |
| 1787965210 | 27.78° C | 41% | - | 0 mm | - | - | - |
| 1787964608 | 27.78° C | 41% | - | 0 mm | - | - | - |
| 1787964009 | 28.33° C | 41% | - | 0 mm | - | - | - |
| 1787963411 | 28.89° C | 40% | - | 0 mm | - | - | - |
| 1787962807 | 28.33° C | 40% | - | 0 mm | - | - | - |
| 1787962207 | 29.44° C | 38% | - | 0 mm | - | - | - |
| 1787961610 | 27.78° C | 40% | - | 0 mm | - | - | - |
| 1787961010 | 28.33° C | 39% | - | 0 mm | - | - | - |
| 1787960406 | 29.44° C | 38% | - | 0 mm | - | - | - |
| 1787959809 | 28.89° C | 39% | - | 0 mm | - | - | - |
| 1787959210 | 27.78° C | 39% | - | 0 mm | - | - | - |
| 1787958608 | 28.89° C | 39% | - | 0 mm | - | - | - |
| 1787958009 | 28.33° C | 40% | - | 0 mm | - | - | - |
| 1787957410 | 28.89° C | 39% | - | 0 mm | - | - | - |
| 1787956807 | 28.89° C | 39% | - | 0 mm | - | - | - |
| 1787956206 | 28.89° C | 39% | - | 0 mm | - | - | - |
| 1787955608 | 28.33° C | 40% | - | 0 mm | - | - | - |
| 1787955009 | 28.33° C | 40% | - | 0 mm | - | - | - |
| 1787954409 | 28.33° C | 41% | - | 0 mm | - | - | - |
* Rain latest hour (hover to see other rain measurements)
** Current wind speed in m/s (hover to see current wind gust speed)